����������;��������(kWh)
2018-04-30 00:00;78,25
2018-04-30 00:15;75,8
2018-04-30 00:30;73,5
2018-04-30 00:45;75,3
2018-04-30 01:00;73,7
2018-04-30 01:15;73,6
2018-04-30 01:30;73,75
2018-04-30 01:45;72,05
2018-04-30 02:00;71,5
2018-04-30 02:15;72,85
2018-04-30 02:30;71,55
2018-04-30 02:45;71,5
2018-04-30 03:00;73,1
2018-04-30 03:15;71,4
2018-04-30 03:30;72,95
2018-04-30 03:45;73,55
2018-04-30 04:00;73,5
2018-04-30 04:15;72,2
2018-04-30 04:30;72,9
2018-04-30 04:45;72,6
2018-04-30 05:00;71,6
2018-04-30 05:15;74,95
2018-04-30 05:30;73,3
2018-04-30 05:45;72,95
2018-04-30 06:00;75,15
2018-04-30 06:15;71,85
2018-04-30 06:30;71,3
2018-04-30 06:45;69,05
2018-04-30 07:00;70,05
2018-04-30 07:15;71,45
2018-04-30 07:30;73,45
2018-04-30 07:45;74,85
2018-04-30 08:00;81,95
2018-04-30 08:15;86,1
2018-04-30 08:30;91,15
2018-04-30 08:45;96,2
2018-04-30 09:00;98,4
2018-04-30 09:15;102,7
2018-04-30 09:30;106
2018-04-30 09:45;108,7
2018-04-30 10:00;111,5
2018-04-30 10:15;115,45
2018-04-30 10:30;114,4
2018-04-30 10:45;115,9
2018-04-30 11:00;118,75
2018-04-30 11:15;119,65
2018-04-30 11:30;123,55
2018-04-30 11:45;123,75
2018-04-30 12:00;124,6
2018-04-30 12:15;126,95
2018-04-30 12:30;127,75
2018-04-30 12:45;133,3
2018-04-30 13:00;130,6
2018-04-30 13:15;133,85
2018-04-30 13:30;137,45
2018-04-30 13:45;142
2018-04-30 14:00;134,45
2018-04-30 14:15;131,75
2018-04-30 14:30;136,15
2018-04-30 14:45;130,5
2018-04-30 15:00;126,95
2018-04-30 15:15;129,3
2018-04-30 15:30;127,55
2018-04-30 15:45;125,65
2018-04-30 16:00;120,85
2018-04-30 16:15;120,45
2018-04-30 16:30;117,6
2018-04-30 16:45;111,3
2018-04-30 17:00;110,9
2018-04-30 17:15;109,15
2018-04-30 17:30;105,6
2018-04-30 17:45;106,7
2018-04-30 18:00;104,1
2018-04-30 18:15;104,45
2018-04-30 18:30;100,75
2018-04-30 18:45;101,35
2018-04-30 19:00;98,95
2018-04-30 19:15;97,2
2018-04-30 19:30;99,25
2018-04-30 19:45;98,4
2018-04-30 20:00;96,85
2018-04-30 20:15;96,1
2018-04-30 20:30;96,95
2018-04-30 20:45;97,4
2018-04-30 21:00;95,7
2018-04-30 21:15;93,15
2018-04-30 21:30;90,85
2018-04-30 21:45;85,95
2018-04-30 22:00;86,75
2018-04-30 22:15;83,55
2018-04-30 22:30;82,95
2018-04-30 22:45;84,15
2018-04-30 23:00;84,2
2018-04-30 23:15;81,85
2018-04-30 23:30;81,55
2018-04-30 23:45;80,95
2018-05-01 00:00;78,6
2018-05-01 00:15;76,9
2018-05-01 00:30;78,45
2018-05-01 00:45;75,7
2018-05-01 01:00;76,5
2018-05-01 01:15;76,95
2018-05-01 01:30;75,3
2018-05-01 01:45;74,3
2018-05-01 02:00;74,45
2018-05-01 02:15;76,65
2018-05-01 02:30;76,9
2018-05-01 02:45;77,4
2018-05-01 03:00;78,5
2018-05-01 03:15;76,65
2018-05-01 03:30;79,05
2018-05-01 03:45;79,55
2018-05-01 04:00;79,05
2018-05-01 04:15;79,25
2018-05-01 04:30;75,45
2018-05-01 04:45;74,6
2018-05-01 05:00;74,85
2018-05-01 05:15;74,25
2018-05-01 05:30;75,4
2018-05-01 05:45;75,05
2018-05-01 06:00;75,65
2018-05-01 06:15;78,9
2018-05-01 06:30;75,8
2018-05-01 06:45;72
2018-05-01 07:00;73,2
2018-05-01 07:15;69,2
2018-05-01 07:30;66,9
2018-05-01 07:45;67,55
2018-05-01 08:00;67,85
2018-05-01 08:15;69,7
2018-05-01 08:30;70,7
2018-05-01 08:45;69,7
2018-05-01 09:00;71,45
2018-05-01 09:15;72,2
2018-05-01 09:30;73,55
2018-05-01 09:45;71,3
2018-05-01 10:00;72,7
2018-05-01 10:15;73,75
2018-05-01 10:30;74,6
2018-05-01 10:45;72,95
2018-05-01 11:00;73,15
2018-05-01 11:15;73,6
2018-05-01 11:30;75,65
2018-05-01 11:45;74,2
2018-05-01 12:00;73,85
2018-05-01 12:15;76,85
2018-05-01 12:30;77,4
2018-05-01 12:45;74,15
2018-05-01 13:00;76,95
2018-05-01 13:15;80,65
2018-05-01 13:30;80,05
2018-05-01 13:45;79,8
2018-05-01 14:00;78,15
2018-05-01 14:15;78,85
2018-05-01 14:30;74,95
2018-05-01 14:45;74,9
2018-05-01 15:00;77,25
2018-05-01 15:15;77,65
2018-05-01 15:30;72,95
2018-05-01 15:45;76
2018-05-01 16:00;73,5
2018-05-01 16:15;71,8
2018-05-01 16:30;74,9
2018-05-01 16:45;72,7
2018-05-01 17:00;72,3
2018-05-01 17:15;74,45
2018-05-01 17:30;75,25
2018-05-01 17:45;76,95
2018-05-01 18:00;74,85
2018-05-01 18:15;75,5
2018-05-01 18:30;78,9
2018-05-01 18:45;79,9
2018-05-01 19:00;80,1
2018-05-01 19:15;83,3
2018-05-01 19:30;81,25
2018-05-01 19:45;83,35
2018-05-01 20:00;85
2018-05-01 20:15;88,8
2018-05-01 20:30;91,25
2018-05-01 20:45;92,35
2018-05-01 21:00;89,05
2018-05-01 21:15;88,75
2018-05-01 21:30;89,35
2018-05-01 21:45;86,6
2018-05-01 22:00;85,65
2018-05-01 22:15;84,75
2018-05-01 22:30;84,3
2018-05-01 22:45;85,3
2018-05-01 23:00;84,6
2018-05-01 23:15;80,15
2018-05-01 23:30;79,7
2018-05-01 23:45;77,7
2018-05-02 00:00;74,5
2018-05-02 00:15;76,7
2018-05-02 00:30;75,05
2018-05-02 00:45;75,75
2018-05-02 01:00;76,55
2018-05-02 01:15;74,95
2018-05-02 01:30;75
2018-05-02 01:45;73,8
2018-05-02 02:00;70,2
2018-05-02 02:15;70,2
2018-05-02 02:30;71,35
2018-05-02 02:45;70,25
2018-05-02 03:00;69,8
2018-05-02 03:15;71,4
2018-05-02 03:30;71
2018-05-02 03:45;72,45
2018-05-02 04:00;72,45
2018-05-02 04:15;70,55
2018-05-02 04:30;71,55
2018-05-02 04:45;70,45
2018-05-02 05:00;70,25
2018-05-02 05:15;72,85
2018-05-02 05:30;71,85
2018-05-02 05:45;72,35
2018-05-02 06:00;73,55
2018-05-02 06:15;71
2018-05-02 06:30;68,2
2018-05-02 06:45;67,6
2018-05-02 07:00;68,6
2018-05-02 07:15;70,55
2018-05-02 07:30;74,45
2018-05-02 07:45;79,5
2018-05-02 08:00;79,75
2018-05-02 08:15;84,25
2018-05-02 08:30;88,4
2018-05-02 08:45;89,8
2018-05-02 09:00;95,95
2018-05-02 09:15;101,3
2018-05-02 09:30;106,2
2018-05-02 09:45;110,4
2018-05-02 10:00;114,75
2018-05-02 10:15;121,95
2018-05-02 10:30;155,6
2018-05-02 10:45;179,05
2018-05-02 11:00;142,15
2018-05-02 11:15;139,05
2018-05-02 11:30;151,4
2018-05-02 11:45;151,55
2018-05-02 12:00;150,5
2018-05-02 12:15;149,85
2018-05-02 12:30;152,8
2018-05-02 12:45;154,45
2018-05-02 13:00;161,5
2018-05-02 13:15;155,45
2018-05-02 13:30;160
2018-05-02 13:45;156,8
2018-05-02 14:00;157,2
2018-05-02 14:15;152,8
2018-05-02 14:30;151,35
2018-05-02 14:45;147,5
2018-05-02 15:00;141,85
2018-05-02 15:15;139,2
2018-05-02 15:30;136,65
2018-05-02 15:45;130,8
2018-05-02 16:00;126,65
2018-05-02 16:15;123,8
2018-05-02 16:30;117,9
2018-05-02 16:45;116,65
2018-05-02 17:00;113,1
2018-05-02 17:15;110,35
2018-05-02 17:30;112,55
2018-05-02 17:45;107,4
2018-05-02 18:00;106,45
2018-05-02 18:15;106,6
2018-05-02 18:30;109,45
2018-05-02 18:45;144,9
2018-05-02 19:00;107,45
2018-05-02 19:15;106,35
2018-05-02 19:30;102,75
2018-05-02 19:45;102,65
2018-05-02 20:00;101,1
2018-05-02 20:15;101,05
2018-05-02 20:30;100,8
2018-05-02 20:45;99,8
2018-05-02 21:00;97
2018-05-02 21:15;94,5
2018-05-02 21:30;95,55
2018-05-02 21:45;90,05
2018-05-02 22:00;87,7
2018-05-02 22:15;88,2
2018-05-02 22:30;87
2018-05-02 22:45;85,7
2018-05-02 23:00;85,15
2018-05-02 23:15;81,75
2018-05-02 23:30;80,4
2018-05-02 23:45;81,25
2018-05-03 00:00;77,85
2018-05-03 00:15;78
2018-05-03 00:30;77,8
2018-05-03 00:45;76,6
2018-05-03 01:00;78,65
2018-05-03 01:15;80,05
2018-05-03 01:30;77,9
2018-05-03 01:45;79
2018-05-03 02:00;78,6
2018-05-03 02:15;77,6
2018-05-03 02:30;77,35
2018-05-03 02:45;77,75
2018-05-03 03:00;77
2018-05-03 03:15;77
2018-05-03 03:30;79,75
2018-05-03 03:45;77,85
2018-05-03 04:00;78
2018-05-03 04:15;78,2
2018-05-03 04:30;77,15
2018-05-03 04:45;77,2
2018-05-03 05:00;77,45
2018-05-03 05:15;80,55
2018-05-03 05:30;81,25
2018-05-03 05:45;80,85
2018-05-03 06:00;78,75
2018-05-03 06:15;77,7
2018-05-03 06:30;74,85
2018-05-03 06:45;71,3
2018-05-03 07:00;75,75
2018-05-03 07:15;74,1
2018-05-03 07:30;76,5
2018-05-03 07:45;81,75
2018-05-03 08:00;83,5
2018-05-03 08:15;89,05
2018-05-03 08:30;91,65
2018-05-03 08:45;96,6
2018-05-03 09:00;98,15
2018-05-03 09:15;159,1
2018-05-03 09:30;134,15
2018-05-03 09:45;125,15
2018-05-03 10:00;134,55
2018-05-03 10:15;136,15
2018-05-03 10:30;147,5
2018-05-03 10:45;140,2
2018-05-03 11:00;143,7
2018-05-03 11:15;142,55
2018-05-03 11:30;144,45
2018-05-03 11:45;153,5
2018-05-03 12:00;153,5
2018-05-03 12:15;160,7
2018-05-03 12:30;158,6
2018-05-03 12:45;149,2
2018-05-03 13:00;158,2
2018-05-03 13:15;159,25
2018-05-03 13:30;162,45
2018-05-03 13:45;162,3
2018-05-03 14:00;162,1
2018-05-03 14:15;167,8
2018-05-03 14:30;166,1
2018-05-03 14:45;162,35
2018-05-03 15:00;158,9
2018-05-03 15:15;153,65
2018-05-03 15:30;146,25
2018-05-03 15:45;150,55
2018-05-03 16:00;149,15
2018-05-03 16:15;134,6
2018-05-03 16:30;137,2
2018-05-03 16:45;130,15
2018-05-03 17:00;129
2018-05-03 17:15;121,5
2018-05-03 17:30;124
2018-05-03 17:45;131,45
2018-05-03 18:00;123,95
2018-05-03 18:15;125,4
2018-05-03 18:30;117,75
2018-05-03 18:45;118,75
2018-05-03 19:00;122,75
2018-05-03 19:15;116,05
2018-05-03 19:30;111,8
2018-05-03 19:45;110,4
2018-05-03 20:00;108,95
2018-05-03 20:15;107,7
2018-05-03 20:30;108,85
2018-05-03 20:45;105,1
2018-05-03 21:00;100,25
2018-05-03 21:15;100,3
2018-05-03 21:30;96
2018-05-03 21:45;92,75
2018-05-03 22:00;85,95
2018-05-03 22:15;85,9
2018-05-03 22:30;85,5
2018-05-03 22:45;86,15
2018-05-03 23:00;85,35
2018-05-03 23:15;83,05
2018-05-03 23:30;80,8
2018-05-03 23:45;81,7
2018-05-04 00:00;80,4
2018-05-04 00:15;80,8
2018-05-04 00:30;80,9
2018-05-04 00:45;81,15
2018-05-04 01:00;79,1
2018-05-04 01:15;79,95
2018-05-04 01:30;80,2
2018-05-04 01:45;79,5
2018-05-04 02:00;78,1
2018-05-04 02:15;78,45
2018-05-04 02:30;75,7
2018-05-04 02:45;76,45
2018-05-04 03:00;75,25
2018-05-04 03:15;75,45
2018-05-04 03:30;76,25
2018-05-04 03:45;77,55
2018-05-04 04:00;76,75
2018-05-04 04:15;75,15
2018-05-04 04:30;75,2
2018-05-04 04:45;74,8
2018-05-04 05:00;75,7
2018-05-04 05:15;76,6
2018-05-04 05:30;77,5
2018-05-04 05:45;78,15
2018-05-04 06:00;78,25
2018-05-04 06:15;79,9
2018-05-04 06:30;76,35
2018-05-04 06:45;74,15
2018-05-04 07:00;76,95
2018-05-04 07:15;77,75
2018-05-04 07:30;79,8
2018-05-04 07:45;85,9
2018-05-04 08:00;87,45
2018-05-04 08:15;89,65
2018-05-04 08:30;99,5
2018-05-04 08:45;103,3
2018-05-04 09:00;104,2
2018-05-04 09:15;152,85
2018-05-04 09:30;130,75
2018-05-04 09:45;128,2
2018-05-04 10:00;136,8
2018-05-04 10:15;135,3
2018-05-04 10:30;134,9
2018-05-04 10:45;137,2
2018-05-04 11:00;140,5
2018-05-04 11:15;145,5
2018-05-04 11:30;146,15
2018-05-04 11:45;145,95
2018-05-04 12:00;141,15
2018-05-04 12:15;143,2
2018-05-04 12:30;149,1
2018-05-04 12:45;147,2
2018-05-04 13:00;145,95
2018-05-04 13:15;150,2
2018-05-04 13:30;147,25
2018-05-04 13:45;145,45
2018-05-04 14:00;148,05
2018-05-04 14:15;147,55
2018-05-04 14:30;145,05
2018-05-04 14:45;137,3
2018-05-04 15:00;137,5
2018-05-04 15:15;135,95
2018-05-04 15:30;136,9
2018-05-04 15:45;131,8
2018-05-04 16:00;130
2018-05-04 16:15;119,9
2018-05-04 16:30;120,4
2018-05-04 16:45;114,1
2018-05-04 17:00;113,7
2018-05-04 17:15;112,5
2018-05-04 17:30;115,1
2018-05-04 17:45;107,7
2018-05-04 18:00;105,2
2018-05-04 18:15;107,7
2018-05-04 18:30;101,3
2018-05-04 18:45;108,9
2018-05-04 19:00;101,6
2018-05-04 19:15;102,65
2018-05-04 19:30;103,8
2018-05-04 19:45;101,85
2018-05-04 20:00;98,55
2018-05-04 20:15;99,75
2018-05-04 20:30;105,85
2018-05-04 20:45;101,75
2018-05-04 21:00;98,95
2018-05-04 21:15;96,1
2018-05-04 21:30;97,1
2018-05-04 21:45;92,6
2018-05-04 22:00;87,8
2018-05-04 22:15;86,95
2018-05-04 22:30;86,9
2018-05-04 22:45;86
2018-05-04 23:00;86,2
2018-05-04 23:15;83,05
2018-05-04 23:30;84,3
2018-05-04 23:45;84
2018-05-05 00:00;83,5
2018-05-05 00:15;82,3
2018-05-05 00:30;81,75
2018-05-05 00:45;81,6
2018-05-05 01:00;82,6
2018-05-05 01:15;82,5
2018-05-05 01:30;83,8
2018-05-05 01:45;83
2018-05-05 02:00;81,5
2018-05-05 02:15;80,5
2018-05-05 02:30;80,6
2018-05-05 02:45;80,9
2018-05-05 03:00;80,85
2018-05-05 03:15;78,25
2018-05-05 03:30;77,8
2018-05-05 03:45;79,1
2018-05-05 04:00;79,45
2018-05-05 04:15;78,75
2018-05-05 04:30;76,65
2018-05-05 04:45;76,65
2018-05-05 05:00;75,85
2018-05-05 05:15;77,45
2018-05-05 05:30;74,7
2018-05-05 05:45;74,6
2018-05-05 06:00;75,7
2018-05-05 06:15;76,7
2018-05-05 06:30;74,3
2018-05-05 06:45;70,4
2018-05-05 07:00;70,1
2018-05-05 07:15;67,95
2018-05-05 07:30;67,6
2018-05-05 07:45;66,4
2018-05-05 08:00;69,3
2018-05-05 08:15;66,6
2018-05-05 08:30;65,45
2018-05-05 08:45;67,15
2018-05-05 09:00;67
2018-05-05 09:15;66,55
2018-05-05 09:30;68,25
2018-05-05 09:45;68,15
2018-05-05 10:00;69
2018-05-05 10:15;68,25
2018-05-05 10:30;71,2
2018-05-05 10:45;69,75
2018-05-05 11:00;71,2
2018-05-05 11:15;71,1
2018-05-05 11:30;74,7
2018-05-05 11:45;77,75
2018-05-05 12:00;73,35
2018-05-05 12:15;75,05
2018-05-05 12:30;76,05
2018-05-05 12:45;75,1
2018-05-05 13:00;74,55
2018-05-05 13:15;72,55
2018-05-05 13:30;71,8
2018-05-05 13:45;74,35
2018-05-05 14:00;74,65
2018-05-05 14:15;75,4
2018-05-05 14:30;78,4
2018-05-05 14:45;76,7
2018-05-05 15:00;75,8
2018-05-05 15:15;78,5
2018-05-05 15:30;80
2018-05-05 15:45;81,8
2018-05-05 16:00;78,25
2018-05-05 16:15;79,45
2018-05-05 16:30;81,35
2018-05-05 16:45;80,75
2018-05-05 17:00;80,45
2018-05-05 17:15;76,7
2018-05-05 17:30;74,45
2018-05-05 17:45;75,65
2018-05-05 18:00;77,15
2018-05-05 18:15;77,05
2018-05-05 18:30;76,65
2018-05-05 18:45;79
2018-05-05 19:00;81,85
2018-05-05 19:15;84,8
2018-05-05 19:30;85,45
2018-05-05 19:45;88
2018-05-05 20:00;89
2018-05-05 20:15;92,9
2018-05-05 20:30;91,2
2018-05-05 20:45;94,55
2018-05-05 21:00;95,15
2018-05-05 21:15;92,45
2018-05-05 21:30;91,15
2018-05-05 21:45;86,6
2018-05-05 22:00;85,35
2018-05-05 22:15;82,1
2018-05-05 22:30;78,35
2018-05-05 22:45;76,25
2018-05-05 23:00;77,35
2018-05-05 23:15;74,3
2018-05-05 23:30;75
2018-05-05 23:45;75,9
2018-05-06 00:00;74,05
2018-05-06 00:15;73,9
2018-05-06 00:30;73,2
2018-05-06 00:45;72,05
2018-05-06 01:00;71,5
2018-05-06 01:15;71,7
2018-05-06 01:30;71
2018-05-06 01:45;71,7
2018-05-06 02:00;71,2
2018-05-06 02:15;71,2
2018-05-06 02:30;71,6
2018-05-06 02:45;71,25
2018-05-06 03:00;72,25
2018-05-06 03:15;71,75
2018-05-06 03:30;72,7
2018-05-06 03:45;72,7
2018-05-06 04:00;73,15
2018-05-06 04:15;72,55
2018-05-06 04:30;72,9
2018-05-06 04:45;73,25
2018-05-06 05:00;72,2
2018-05-06 05:15;73,25
2018-05-06 05:30;72,7
2018-05-06 05:45;73,9
2018-05-06 06:00;75,6
2018-05-06 06:15;74,15
2018-05-06 06:30;72,65
2018-05-06 06:45;68,7
2018-05-06 07:00;68,65
2018-05-06 07:15;66
2018-05-06 07:30;64,1
2018-05-06 07:45;67,05
2018-05-06 08:00;64,55
2018-05-06 08:15;66
2018-05-06 08:30;63,45
2018-05-06 08:45;64,05
2018-05-06 09:00;64,4
2018-05-06 09:15;64,45
2018-05-06 09:30;64,55
2018-05-06 09:45;64,6
2018-05-06 10:00;65,1
2018-05-06 10:15;65,6
2018-05-06 10:30;65,1
2018-05-06 10:45;65,3
2018-05-06 11:00;67,7
2018-05-06 11:15;70,9
2018-05-06 11:30;73,4
2018-05-06 11:45;74,4
2018-05-06 12:00;77,35
2018-05-06 12:15;77,15
2018-05-06 12:30;80,9
2018-05-06 12:45;81,95
2018-05-06 13:00;81,35
2018-05-06 13:15;77,2
2018-05-06 13:30;78,25
2018-05-06 13:45;83,2
2018-05-06 14:00;82,75
2018-05-06 14:15;82,3
2018-05-06 14:30;84,2
2018-05-06 14:45;79,85
2018-05-06 15:00;81,25
2018-05-06 15:15;80,85
2018-05-06 15:30;80,6
2018-05-06 15:45;79,85
2018-05-06 16:00;79,9
2018-05-06 16:15;81,3
2018-05-06 16:30;79,3
2018-05-06 16:45;77,25
2018-05-06 17:00;76,25
2018-05-06 17:15;74,6
2018-05-06 17:30;74,55
2018-05-06 17:45;76,35
2018-05-06 18:00;77,3
2018-05-06 18:15;76,8
2018-05-06 18:30;76,6
2018-05-06 18:45;75,3
2018-05-06 19:00;77,05
2018-05-06 19:15;78,5
2018-05-06 19:30;80,5
2018-05-06 19:45;83,55
2018-05-06 20:00;85,5
2018-05-06 20:15;85,2
2018-05-06 20:30;88,5
2018-05-06 20:45;88,95
2018-05-06 21:00;87,95
2018-05-06 21:15;87,1
2018-05-06 21:30;86,8
2018-05-06 21:45;84,55
2018-05-06 22:00;82,95
2018-05-06 22:15;80,9
2018-05-06 22:30;77,15
2018-05-06 22:45;77,15
2018-05-06 23:00;77,65
2018-05-06 23:15;76,2
2018-05-06 23:30;75,55
2018-05-06 23:45;76,1

